Location: Cedar Springs
(43.2230°N, 85.5510°W)
Time: 23:18:48
(UTC-04:00)

Cosmos 2278 Rocket - Visible Passes

Search period start: 30 July 2014 00:00
Search period end: 09 August 2014 00:00
Orbit: 840 x 847 km, 71.0° (Epoch: 29 July)

Date Brightness Start Highest point End Pass type
(mag) Time Alt. Az. Time Alt. Az. Time Alt. Az.
30 Jul 3.2 03:43:48 28° SSE 03:45:58 38° ESE 03:51:10 10° NE visible
30 Jul 3.2 05:25:40 13° WSW 05:30:04 34° NW 05:35:13 10° N visible
31 Jul 3.2 03:29:54 30° SE 03:31:32 37° ESE 03:36:41 10° NE visible
31 Jul 3.1 05:11:46 17° WSW 05:15:36 35° NW 05:20:48 10° N visible
01 Aug 3.2 03:15:58 32° SE 03:17:06 35° ESE 03:22:11 10° NE visible
01 Aug 3.1 04:57:50 20° WSW 05:01:08 36° WNW 05:06:22 10° N visible
02 Aug 3.2 03:02:00 33° ESE 03:02:39 34° ESE 03:07:42 10° NE visible
02 Aug 3.0 04:43:51 24° WSW 04:46:40 38° WNW 04:51:56 10° N visible
03 Aug 3.3 02:48:00 32° ESE 02:48:13 32° ESE 02:53:12 10° NE visible
03 Aug 3.0 04:29:51 27° WSW 04:32:11 39° WNW 04:37:30 10° NNE visible
04 Aug 3.4 02:33:58 31° E 02:33:58 31° E 02:38:42 10° NE visible
04 Aug 2.9 04:15:49 31° W 04:17:43 41° WNW 04:23:04 10° NNE visible
05 Aug 3.5 02:19:54 29° E 02:19:54 29° E 02:24:12 10° NE visible
05 Aug 2.9 04:01:45 35° W 04:03:15 42° WNW 04:08:38 10° NNE visible
06 Aug 3.6 02:05:48 27° E 02:05:48 27° E 02:09:42 10° NE visible
06 Aug 2.8 03:47:39 39° W 03:48:47 44° WNW 03:54:12 10° NNE visible
07 Aug 3.7 01:51:41 25° E 01:51:41 25° E 01:55:11 10° NE visible
07 Aug 2.7 03:33:32 43° W 03:34:18 46° WNW 03:39:46 10° NNE visible
08 Aug 3.8 01:37:33 23° ENE 01:37:33 23° ENE 01:40:41 10° NE visible
08 Aug 2.7 03:19:23 46° WNW 03:19:50 47° WNW 03:25:19 10° NNE visible
